EW8576 Weather Reports


Display with metric or nautical units.
time (UTC)temp
F
wind
direction
speed
MPH
gust
MPH
rain 1hr
in
rain 24hr
in
rain mn
in
humidity
%
barometer
mb
20260503014845 48 59 0.0 0.0 0.00 0.00 0.00 51 1010.2
20260503014345 48 59 0.0 0.0 0.00 0.00 0.00 48 1010.2
20260503014107 49 59 0.0 2.0 0.00 0.00 0.00 47 1010.1
20260503013345 49 59 0.0 4.0 0.00 0.00 0.00 47 1010.0
20260503012844 48 59 0.0 4.0 0.00 0.00 0.00 48 1010.0
20260503012344 48 59 0.0 2.0 0.00 0.00 0.00 48 1010.0
20260503011845 47 59 0.0 2.0 0.00 0.00 0.00 49 1010.0
20260503011345 47 62 0.0 0.0 0.00 0.00 0.00 49 1010.0
20260503010840 47 63 0.0 0.0 0.00 0.00 0.00 49 1009.9
20260503010340 47 63 0.0 0.0 0.00 0.00 0.00 47 1009.9
20260503005841 48 63 0.0 0.0 0.00 0.00 0.00 44 1009.8
20260503005341 48 63 0.0 0.0 0.00 0.00 0.00 48 1009.7
20260503004841 48 63 0.0 0.0 0.00 0.00 0.00 49 1009.7
20260503004340 49 63 0.0 0.0 0.00 0.00 0.00 48 1009.6
20260503004102 49 63 0.0 0.0 0.00 0.00 0.00 51 1009.5
20260503003340 49 62 0.0 0.0 0.00 0.00 0.00 52 1009.5
20260503002841 50 63 0.0 0.0 0.00 0.00 0.00 51 1009.4
20260503002337 50 63 0.0 0.0 0.00 0.00 0.00 51 1009.3
20260503002054 51 63 0.0 4.0 0.00 0.00 0.00 49 1009.4
20260503001558 51 63 0.0 4.0 0.00 0.00 0.00 50 1009.3
20260503001054 51 63 0.0 0.0 0.00 0.00 0.00 52 1009.2
20260503000333 52 63 0.0 0.0 0.00 0.00 0.00 50 1009.2
20260502235829 52 63 0.0 0.0 0.00 0.00 0.00 49 1009.2
20260502235555 53 63 0.0 0.0 0.00 0.00 0.00 48 1009.1
20260502234829 53 63 0.0 0.0 0.00 0.00 0.00 42 1009.2
20260502234329 53 63 0.0 0.0 0.00 0.00 0.00 39 1009.2
20260502233829 53 63 0.0 0.0 0.00 0.00 0.00 40 1009.1
20260502233329 53 63 0.0 0.0 0.00 0.00 0.00 40 1009.2
20260502232829 54 63 0.0 0.0 0.00 0.00 0.00 41 1009.1
20260502232329 54 63 0.0 8.0 0.00 0.00 0.00 41 1009.2
20260502231829 54 62 0.0 8.0 0.00 0.00 0.00 40 1009.1
20260502231328 54 50 0.0 6.0 0.00 0.00 0.00 42 1009.0
20260502230822 55 65 0.0 6.0 0.00 0.00 0.00 42 1009.0
20260502230321 54 57 0.0 5.0 0.00 0.00 0.00 42 1008.9
20260502225819 54 50 0.0 5.0 0.00 0.00 0.00 43 1008.9
20260502225318 54 38 0.0 4.0 0.00 0.00 0.00 41 1009.0
20260502224818 55 38 0.0 4.0 0.00 0.00 0.00 41 1008.9
20260502224317 55 42 0.0 1.0 0.00 0.00 0.00 41 1008.8
20260502223817 55 50 0.0 10.0 0.00 0.00 0.00 41 1008.8
20260502223317 55 54 1.0 10.0 0.00 0.00 0.00 40 1008.7
20260502222817 56 55 1.0 6.0 0.00 0.00 0.00 41 1008.6
20260502222316 56 26 0.0 7.0 0.00 0.00 0.00 43 1008.5
20260502222034 56 46 0.0 7.0 0.00 0.00 0.00 40 1008.4
20260502221315 56 38 0.0 4.0 0.00 0.00 0.00 42 1008.4
20260502221034 56 68 0.0 1.0 0.00 0.00 0.00 43 1008.4
20260502220314 56 42 0.0 0.0 0.00 0.00 0.00 41 1008.4
20260502215814 56 36 0.0 4.0 0.00 0.00 0.00 42 1008.3
20260502215314 56 41 0.0 4.0 0.00 0.00 0.00 41 1008.3
20260502214812 56 44 0.0 9.0 0.00 0.00 0.00 41 1008.2
20260502214312 56 48 1.0 9.0 0.00 0.00 0.00 40 1008.2
20260502213807 56 46 0.0 8.0 0.00 0.00 0.00 40 1008.2
20260502213300 56 62 1.0 10.0 0.00 0.00 0.00 40 1008.2
20260502212753 56 51 1.0 10.0 0.00 0.00 0.00 40 1008.1
20260502212247 56 63 0.0 2.0 0.00 0.00 0.00 44 1008.0
20260502212005 56 53 0.0 6.0 0.00 0.00 0.00 42 1007.9
20260502211236 57 46 0.0 7.0 0.00 0.00 0.00 41 1007.8
20260502210729 57 49 0.0 7.0 0.00 0.00 0.00 43 1007.8
20260502210444 58 69 0.0 4.0 0.00 0.00 0.00 41 1007.7
20260502205718 58 73 0.0 6.0 0.00 0.00 0.00 44 1007.7
20260502205212 57 51 0.0 6.0 0.00 0.00 0.00 41 1007.8
20260502204707 57 74 0.0 2.0 0.00 0.00 0.00 43 1007.6
20260502204200 57 88 0.0 7.0 0.00 0.00 0.00 43 1007.7
20260502203654 56 46 0.0 7.0 0.00 0.00 0.00 43 1007.6
20260502203148 57 65 0.0 2.0 0.00 0.00 0.00 44 1007.7
20260502202908 57 64 0.0 2.0 0.00 0.00 0.00 43 1007.9
20260502202136 57 55 0.0 2.0 0.00 0.00 0.00 43 1007.9
20260502201629 57 169 0.0 2.0 0.00 0.00 0.00 40 1007.9
20260502201349 58 182 0.0 2.0 0.00 0.00 0.00 41 1008.0
20260502200618 57 32 0.0 2.0 0.00 0.00 0.00 43 1008.0
20260502200338 57 31 0.0 1.0 0.00 0.00 0.00 43 1008.2
20260502195606 57 170 0.0 0.0 0.00 0.00 0.00 45 1008.2
20260502195323 57 170 0.0 0.0 0.00 0.00 0.00 44 1008.3
20260502195038 57 47 0.0 0.0 0.00 0.00 0.00 44 1008.3
20260502194049 57 43 0.0 1.0 0.00 0.00 0.00 46 1008.3
20260502193802 56 154 0.0 1.0 0.00 0.00 0.00 46 1008.4
20260502193036 56 154 0.0 4.0 0.00 0.00 0.00 46 1008.6
20260502192530 56 157 0.0 4.0 0.00 0.00 0.00 46 1008.5
20260502192025 56 157 0.0 0.0 0.00 0.00 0.00 45 1008.7
20260502191738 56 157 0.0 4.0 0.00 0.00 0.00 44 1008.6
20260502191012 57 157 0.0 4.0 0.00 0.00 0.00 43 1008.7
20260502190506 57 164 0.0 1.0 0.00 0.00 0.00 44 1008.6
20260502190000 56 175 0.0 0.0 0.00 0.00 0.00 41 1008.7
20260502185454 56 175 0.0 0.0 0.00 0.00 0.00 43 1008.9
20260502184947 56 175 0.0 0.0 0.00 0.00 0.00 43 1008.9
20260502184441 56 175 0.0 1.0 0.00 0.00 0.00 44 1008.9
20260502183936 56 174 0.0 1.0 0.00 0.00 0.00 42 1008.9
20260502183430 56 159 0.0 6.0 0.00 0.00 0.00 42 1008.9
20260502182924 56 159 0.0 6.0 0.00 0.00 0.00 40 1008.9
20260502182418 56 165 0.0 4.0 0.00 0.00 0.00 41 1008.9
20260502182134 55 190 0.0 0.0 0.00 0.00 0.00 42 1008.9
20260502181406 55 190 0.0 2.0 0.00 0.00 0.00 39 1008.9
20260502180900 55 202 0.0 2.0 0.00 0.00 0.00 39 1008.8
20260502180353 55 203 0.0 1.0 0.00 0.00 0.00 37 1008.8
20260502170241 55 68 0.0 4.0 0.00 0.00 0.00 26 1009.4
20260502164217 55 67 0.0 2.0 0.00 0.00 0.00 43 1009.5
20260502163931 55 67 0.0 2.0 0.00 0.00 0.00 43 1009.6
20260502163207 55 0 0.0 2.0 0.00 0.00 0.00 43 1009.7
20260502162659 54 355 0.0 1.0 0.00 0.00 0.00 43 1009.8
20260502162418 54 89 0.0 0.0 0.00 0.00 0.00 41 1009.8
20260502161648 54 32 0.0 2.0 0.00 0.00 0.00 41 1009.8
20260502161142 54 46 0.0 2.0 0.00 0.00 0.00 41 1009.9
20260502160635 54 312 0.0 5.0 0.00 0.00 0.00 42 1009.9
20260502160130 54 319 0.0 5.0 0.00 0.00 0.00 39 1010.0
20260502152116 50 0 0.0 2.0 0.00 0.00 0.00 1 1010.3
20260502151616 49 57 0.0 2.0 0.00 0.00 0.00 1 1010.5
20260502151114 49 58 0.0 2.0 0.00 0.00 0.00 1 1010.4
20260502150614 49 0 0.0 0.0 0.00 0.00 0.00 1 1010.5
20260502150114 49 53 0.0 0.0 0.00 0.00 0.00 1 1010.5
20260502130558 49 274 0.0 0.0 0.00 0.00 0.00 1 1010.3
20260502130322 49 274 0.0 0.0 0.00 0.00 0.00 1 1010.3
20260502123554 48 274 0.0 0.0 0.00 0.00 0.00 1 1010.2
20260502123054 48 274 0.0 0.0 0.00 0.00 0.00 1 1010.2
20260502122554 48 274 0.0 0.0 0.00 0.00 0.00 1 1010.1
20260502122053 48 274 0.0 0.0 0.00 0.00 0.00 1 1010.1
20260502121553 48 274 0.0 0.0 0.00 0.00 0.00 1 1010.0
20260502121054 48 274 0.0 0.0 0.00 0.00 0.00 1 1010.0
20260502120554 48 273 0.0 0.0 0.00 0.00 0.00 1 1010.1
20260502115547 48 0 0.0 0.0 0.00 0.00 0.00 1 1010.0
20260502115048 48 272 0.0 0.0 0.00 0.00 0.00 1 1010.1
20260502114548 48 0 0.0 0.0 0.00 0.00 0.00 1 1010.1
20260502114047 47 274 0.0 0.0 0.00 0.00 0.00 1 1010.2
20260502113546 47 274 0.0 0.0 0.00 0.00 0.00 1 1010.1
20260502113046 47 274 0.0 0.0 0.00 0.00 0.00 1 1010.0
20260502112544 47 274 0.0 0.0 0.00 0.00 0.00 1 1010.0
20260502112044 47 274 0.0 0.0 0.00 0.00 0.00 1 1010.0
20260502111543 47 274 0.0 0.0 0.00 0.00 0.00 1 1009.9
20260502111043 47 274 0.0 0.0 0.00 0.00 0.00 1 1009.8
20260502110541 47 274 0.0 0.0 0.00 0.00 0.00 1 1009.7
20260502110039 47 274 0.0 0.0 0.00 0.00 0.00 1 1009.6
20260502105538 47 274 0.0 0.0 0.00 0.00 0.00 1 1009.6
20260502105033 47 274 0.0 0.0 0.00 0.00 0.00 1 1009.6
20260502104754 47 274 0.0 0.0 0.00 0.00 0.00 1 1009.6
20260502104020 47 274 0.0 0.0 0.00 0.00 0.00 1 1009.6
20260502103515 46 274 0.0 0.0 0.00 0.00 0.00 1 1009.6
20260502103230 46 274 0.0 0.0 0.00 0.00 0.00 1 1009.7
20260502102504 46 274 0.0 0.0 0.00 0.00 0.00 1 1009.6
20260502102004 46 274 0.0 0.0 0.00 0.00 0.00 1 1009.5
20260502101501 46 274 0.0 0.0 0.00 0.00 0.00 1 1009.5
20260502100959 47 274 0.0 0.0 0.00 0.00 0.00 1 1009.5
20260502100457 47 274 0.0 0.0 0.00 0.00 0.00 1 1009.5
20260502091446 47 274 0.0 0.0 0.00 0.00 0.00 1 1009.1
20260502090943 47 274 0.0 0.0 0.00 0.00 0.00 1 1009.2
20260502090441 47 274 0.0 0.0 0.00 0.00 0.00 1 1009.3
20260502071247 48 276 0.0 0.0 0.00 0.00 0.00 1 1009.7
20260502071224 48 276 0.0 0.0 0.00 0.00 0.00 1 1009.7
20260502070235 48 276 0.0 0.0 0.00 0.00 0.00 1 1009.9
20260502065729 48 276 0.0 0.0 0.00 0.00 0.00 1 1010.0
20260502065223 48 276 0.0 0.0 0.00 0.00 0.00 1 1010.0
20260502064717 48 276 0.0 4.0 0.00 0.00 0.00 1 1010.1
20260502064211 49 276 0.0 4.0 0.00 0.00 0.00 1 1010.2
20260502063705 49 279 0.0 0.0 0.00 0.00 0.00 1 1010.2
20260502063159 49 279 0.0 0.0 0.00 0.00 0.00 1 1010.2
20260502062654 49 279 0.0 0.0 0.00 0.00 0.00 1 1010.3
20260502062408 49 279 0.0 0.0 0.00 0.00 0.00 1 1010.2
20260502061640 49 279 0.0 0.0 0.00 0.00 0.00 1 1009.9
20260502061134 49 279 0.0 0.0 0.00 0.00 0.00 1 1009.8
20260502060629 49 279 0.0 0.0 0.00 0.00 0.00 1 1009.8
20260502060123 49 279 0.0 0.0 0.00 0.00 0.00 1 1009.8
20260502055617 49 279 0.0 0.0 0.00 0.00 0.00 1 1009.8
20260502055556 49 279 0.0 0.0 0.00 0.00 0.00 1 1009.8
20260502054611 49 279 0.0 0.0 0.00 0.00 0.00 1 1009.9
20260502054109 49 279 0.0 0.0 0.00 0.00 0.00 1 1009.9
20260502053607 49 279 0.0 1.0 0.00 0.00 0.00 1 1010.1
20260502053105 49 279 0.0 1.0 0.00 0.00 0.00 1 1009.9
20260502052604 49 279 0.0 0.0 0.00 0.00 0.00 1 1009.8
20260502052101 49 279 0.0 0.0 0.00 0.00 0.00 1 1009.7
20260502051559 49 279 0.0 0.0 0.00 0.00 0.00 1 1009.7
20260502051057 49 279 0.0 0.0 0.00 0.00 0.00 1 1009.7
20260502050555 49 278 0.0 2.0 0.00 0.00 0.00 1 1010.0
20260502050053 49 278 0.0 2.0 0.00 0.00 0.00 1 1010.1
20260502045552 49 279 0.0 0.0 0.00 0.00 0.00 1 1010.0
20260502045051 49 279 0.0 0.0 0.00 0.00 0.00 1 1009.6
20260502044551 50 279 0.0 0.0 0.00 0.00 0.00 1 1009.6
20260502044051 50 279 0.0 0.0 0.00 0.00 0.00 1 1009.6
20260502043548 51 279 0.0 0.0 0.00 0.00 0.00 1 1009.4
20260502043050 51 279 0.0 0.0 0.00 0.00 0.00 8 1009.5
20260502042812 51 279 0.0 0.0 0.00 0.00 0.00 21 1009.6
20260502042047 52 279 0.0 0.0 0.00 0.00 0.00 25 1009.7
20260502041547 52 279 0.0 0.0 0.00 0.00 0.00 25 1009.6
20260502041041 52 279 0.0 2.0 0.00 0.00 0.00 29 1009.5
20260502040534 52 279 0.0 2.0 0.00 0.00 0.00 31 1009.4
20260502040300 52 278 0.0 0.0 0.00 0.00 0.00 30 1009.6
20260502035535 52 278 0.0 4.0 0.00 0.00 0.00 33 1009.6
20260502035523 52 278 0.0 4.0 0.00 0.00 0.00 33 1009.6
20260502034533 51 277 0.0 0.0 0.00 0.00 0.00 27 1009.6
20260502034033 51 277 0.0 0.0 0.00 0.00 0.00 10 1009.6
20260502033532 51 279 0.0 0.0 0.00 0.00 0.00 1 1009.8
20260502033033 51 279 0.0 0.0 0.00 0.00 0.00 1 1009.8
20260502032533 51 279 0.0 0.0 0.00 0.00 0.00 1 1009.6
20260502032033 51 279 0.0 0.0 0.00 0.00 0.00 1 1009.6
20260502031533 51 279 0.0 0.0 0.00 0.00 0.00 1 1009.6
20260502031251 51 279 0.0 0.0 0.00 0.00 0.00 1 1009.6
20260502030533 51 279 0.0 0.0 0.00 0.00 0.00 1 1009.7
20260502030032 51 279 0.0 0.0 0.00 0.00 0.00 1 1009.7
20260502025532 51 279 0.0 0.0 0.00 0.00 0.00 1 1009.6
20260502025032 51 279 0.0 0.0 0.00 0.00 0.00 9 1009.6
20260502024533 51 279 0.0 0.0 0.00 0.00 0.00 15 1009.5
20260502024033 51 279 0.0 0.0 0.00 0.00 0.00 4 1009.6
20260502023533 51 279 0.0 0.0 0.00 0.00 0.00 5 1009.6
20260502023033 51 279 0.0 0.0 0.00 0.00 0.00 1 1009.6
20260502022533 51 279 0.0 0.0 0.00 0.00 0.00 6 1009.6
20260502022032 51 279 0.0 0.0 0.00 0.00 0.00 5 1009.5
20260502021532 51 279 0.0 0.0 0.00 0.00 0.00 10 1009.4
20260502021028 51 279 0.0 0.0 0.00 0.00 0.00 14 1009.5
20260502020528 51 279 0.0 0.0 0.00 0.00 0.00 13 1009.5
20260502020029 51 279 0.0 0.0 0.00 0.00 0.00 15 1009.5
20260502015529 51 278 0.0 0.0 0.00 0.00 0.00 23 1009.4